User: anonymous   Login
Location: Caltech
(34.1382°N, 118.1253°W)
Time: 18:18:22
(UTC-07:00)
Language:

CZ-4B DEB - Orbit

View from above orbital plane
View from above orbital plane
View from above satellite
View from above satellite

Ground track
Ground track

The orbit data is extracted from the following two-line orbital elements,

1 27433U 02024D   17292.54089216 +.00000065 +00000-0 +59861-4 0  9997
2 27433 098.9821 265.7901 0015652 060.9139 299.3597 14.12210043794737
Epoch (UTC): 19 October 2017 12:58:53
Eccentricity: 0.0015652
inclination: 98.9821°
perigee height: 840 km
apogee height: 863 km
right ascension of ascending node: 265.7901°
argument of perigee: 60.9139°
revolutions per day: 14.12210043
mean anomaly at epoch: 299.3597°
orbit number at epoch: 79473

The dashed part of the orbit path shows where the satellite is in the earth's shadow,  

DLR